AJ5TT Weather Reports


Display with metric or nautical units.
time (UTC)temp
F
wind
direction
speed
MPH
gust
MPH
rain 1hr
in
rain 24hr
in
rain mn
in
humidity
%
barometer
mb
20260506094558 76 176 0.0 2.0 0.00 0.00 0.00 93 1009.5
20260506093103 76 119 0.0 2.0 0.00 0.00 0.00 93 1009.6
20260506091602 75 0 0.0 2.0 0.00 0.00 0.00 93 1009.6
20260506084558 75 130 0.0 2.0 0.00 0.00 0.00 92 1009.8
20260506083059 76 219 0.0 3.0 0.00 0.00 0.00 92 1009.7
20260506081555 76 144 1.0 3.0 0.00 0.00 0.00 92 1010.0
20260506073104 76 155 1.0 5.0 0.00 0.00 0.00 91 1010.4
20260506071613 76 196 1.0 6.0 0.00 0.00 0.00 91 1010.6
20260506070104 76 126 1.0 6.0 0.00 0.00 0.00 91 1010.7
20260506061553 76 172 1.0 5.0 0.00 0.00 0.00 90 1010.4
20260506044559 77 134 2.0 7.0 0.00 0.00 0.00 89 1010.4
20260506043054 77 182 2.0 8.0 0.00 0.00 0.00 89 1010.4
20260506041606 77 196 2.0 6.0 0.00 0.00 0.00 89 1010.4
20260506040052 77 180 2.0 7.0 0.00 0.00 0.00 89 1010.4
20260506034554 77 200 4.0 8.0 0.00 0.00 0.00 89 1010.3
20260506033105 77 187 4.0 8.0 0.00 0.00 0.00 89 1010.2
20260506031557 76 110 2.0 9.0 0.00 0.00 0.00 89 1010.2
20260506030054 77 191 2.0 7.0 0.00 0.00 0.00 90 1010.1
20260506024553 76 172 2.0 6.0 0.00 0.00 0.00 90 1009.9
20260506023052 76 165 2.0 5.0 0.00 0.00 0.00 89 1009.7
20260506021555 76 98 2.0 5.0 0.00 0.00 0.00 89 1009.6
20260506020055 77 190 2.0 6.0 0.00 0.00 0.00 89 1009.3
20260506014557 77 149 1.0 5.0 0.00 0.00 0.00 88 1009.1
20260506013056 77 211 2.0 7.0 0.00 0.00 0.00 88 1008.9
20260506011553 77 199 3.0 8.0 0.00 0.00 0.00 87 1008.5
20260506010053 77 223 3.0 9.0 0.00 0.00 0.00 87 1008.4
20260506004556 78 197 2.0 10.0 0.00 0.00 0.00 86 1008.1
20260506003058 78 157 3.0 7.0 0.00 0.00 0.00 86 1008.1
20260506001609 78 192 2.0 7.0 0.00 0.00 0.00 85 1008.2
20260506000055 79 186 3.0 8.0 0.00 0.00 0.00 84 1008.1
20260505234559 79 208 3.0 9.0 0.00 0.00 0.00 84 1008.2
20260505233058 79 159 4.0 11.0 0.00 0.00 0.00 83 1008.3
20260505231557 79 209 4.0 11.0 0.00 0.00 0.00 82 1008.4
20260505230110 80 183 5.0 14.0 0.00 0.00 0.00 81 1008.4
20260505224555 80 243 4.0 12.0 0.00 0.00 0.00 80 1008.3
20260505223100 80 216 4.0 10.0 0.00 0.00 0.00 80 1008.5
20260505221555 80 189 4.0 11.0 0.00 0.00 0.00 81 1008.5
20260505220052 80 188 3.0 10.0 0.00 0.00 0.00 82 1008.5
20260505214605 80 173 3.0 12.0 0.00 0.00 0.00 83 1008.8
20260505213059 80 179 4.0 17.0 0.00 0.00 0.00 82 1009.0
20260505211611 81 142 4.0 11.0 0.00 0.00 0.00 80 1009.0
20260505210106 80 211 5.0 12.0 0.00 0.00 0.00 82 1009.0
20260505204553 80 193 5.0 10.0 0.00 0.00 0.00 81 1009.5
20260505203058 81 144 3.0 14.0 0.00 0.00 0.00 81 1009.7
20260505201606 80 232 4.0 10.0 0.00 0.00 0.00 82 1009.9
20260505200053 80 142 3.0 8.0 0.00 0.00 0.00 82 1010.0
20260505194555 81 146 4.0 10.0 0.00 0.00 0.00 81 1010.1
20260505193054 81 150 4.0 9.0 0.00 0.00 0.00 80 1010.1
20260505191557 81 178 4.0 14.0 0.00 0.00 0.00 80 1010.2
20260505190113 79 233 3.0 8.0 0.00 0.00 0.00 84 1010.2
20260505184605 80 209 4.0 10.0 0.00 0.00 0.00 82 1010.2
20260505183055 80 205 4.0 13.0 0.00 0.00 0.00 83 1010.4
20260505181558 79 184 4.0 9.0 0.00 0.00 0.00 84 1010.5
20260505180057 79 80 3.0 12.0 0.00 0.00 0.00 82 1010.6
20260505174604 80 213 4.0 10.0 0.00 0.00 0.00 81 1010.7
20260505173103 79 218 4.0 9.0 0.00 0.00 0.00 82 1010.9
20260505171600 78 184 4.0 11.0 0.00 0.00 0.00 83 1011.0
20260505170108 78 217 5.0 11.0 0.00 0.00 0.00 84 1011.1
20260505164558 79 194 3.0 8.0 0.00 0.00 0.00 82 1011.0
20260505163107 79 180 4.0 10.0 0.00 0.00 0.00 81 1010.9
20260505161556 79 207 4.0 10.0 0.00 0.00 0.00 81 1010.9
20260505160104 78 197 3.0 11.0 0.00 0.00 0.00 83 1010.8
20260505153108 79 212 4.0 10.0 0.00 0.00 0.00 80 1010.6
20260505151559 79 215 8.0 17.0 0.00 0.00 0.00 80 1010.3
20260505150113 79 243 5.0 13.0 0.00 0.00 0.00 81 1010.3
20260505140124 76 181 2.0 7.0 0.00 0.00 0.00 86 1010.6
20260505124606 74 157 2.0 7.0 0.00 0.00 0.00 88 1010.1
20260505123112 74 142 3.0 8.0 0.00 0.00 0.00 88 1010.0
20260505121555 74 132 2.0 7.0 0.00 0.00 0.00 88 1010.0
20260505120059 73 204 1.0 4.0 0.00 0.00 0.00 88 1010.2
20260505114605 73 205 2.0 5.0 0.00 0.00 0.00 88 1010.0
20260505113058 73 169 1.0 4.0 0.00 0.00 0.00 88 1009.7
20260505111601 73 217 1.0 5.0 0.00 0.00 0.00 88 1010.1
20260505101553 73 180 2.0 6.0 0.00 0.00 0.00 87 1010.0
20260505100104 73 200 1.0 5.0 0.00 0.00 0.00 87 1009.9